Weather History for KVRB - November, 2014

Change the Weather History Date:

Friday, November 21, 2014

  Actual Average Record
Temperature  
Mean Temperature 63 °F 69 °F  
Max Temperature 74 °F 78 °F 86 °F (1988)
Min Temperature 51 °F 60 °F 39 °F (2006)
Degree Days  
Heating Degree Days 2 1  
Month to date heating degree days 51 13  
Since 1 July heating degree days 51 16  
Cooling Degree Days 0 5  
Month to date cooling degree days 47 139  
Year to date cooling degree days 3107 3267  
Growing Degree Days 13 (Base 50)    
Moisture  
Dew Point 57 °F    
Average Humidity 75    
Maximum Humidity 93    
Minimum Humidity 57    
Precipitation  
Precipitation 0.00 in 0.09 in 4.33 in (1984)
Month to date precipitation 0.87 2.40  
Year to date precipitation 48.95 48.80  
Sea Level Pressure  
Sea Level Pressure 30.21 in    
Wind  
Wind Speed 12 mph (ENE)    
Max Wind Speed 22 mph    
Max Gust Speed 26 mph    
Visibility 10 miles    
Events      
T = Trace of Precipitation, MM = Missing Value Source: NWS Daily Summary

Daily Weather History Graph

Daily Weather History Graph

Search for Another Location

Airport or City:

Trip Planner

Search our weather history database for the weather conditions in past years. The results will help you decide how hot, cold, wet, or windy it might be!

Date:

Astronomy

Nov. 21, 2014 Rise Set
Actual Time 6:47 AM EST 5:27 PM EST
Civil Twilight 6:22 AM EST 5:52 PM EST
Nautical Twilight 5:53 AM EST 6:21 PM EST
Astronomical Twilight 5:25 AM EST 6:49 PM EST
Moon 5:47 AM EST (11/21) 5:05 PM EST (11/21)
Length of Visible Light 11h 30m
Length of Day
10h 40m
Waning Crescent, 1% of the Moon is Illuminated
Nov 21
Waning Crescent
Nov 22
New
Nov 29
First Quarter
Dec 6
Full
Dec 14
Last Quarter

Hourly Weather History & Observations

Time (EST) Temp. Dew Point Humidity Pressure Visibility Wind Dir Wind Speed Gust Speed Precip Events Conditions
12:53 AM 53.1 °F 50.0 °F 89% 30.18 in 10.0 mi Calm Calm - N/A   Clear
1:53 AM 53.1 °F 52.0 °F 96% 30.18 in 10.0 mi Calm Calm - N/A   Clear
2:53 AM 64.0 °F 54.0 °F 70% 30.17 in 10.0 mi ENE 6.9 mph - N/A   Partly Cloudy
3:53 AM 66.0 °F 55.9 °F 70% 30.17 in 10.0 mi ENE 5.8 mph - N/A   Scattered Clouds
4:53 AM 66.0 °F 55.9 °F 70% 30.17 in 10.0 mi NE 8.1 mph - N/A   Partly Cloudy
5:53 AM 66.0 °F 57.0 °F 73% 30.19 in 10.0 mi NE 5.8 mph - N/A   Partly Cloudy
6:53 AM 68.0 °F 57.0 °F 68% 30.19 in 10.0 mi ENE 10.4 mph - N/A   Scattered Clouds
7:53 AM 70.0 °F 57.0 °F 63% 30.22 in 10.0 mi ENE 10.4 mph - N/A   Mostly Cloudy
8:53 AM 73.0 °F 57.0 °F 57% 30.23 in 10.0 mi ENE 16.1 mph 25.3 mph N/A   Clear
9:53 AM 73.0 °F 59.0 °F 61% 30.26 in 10.0 mi NE 13.8 mph 20.7 mph N/A   Mostly Cloudy
10:53 AM 72.0 °F 57.9 °F 61% 30.26 in 10.0 mi NE 17.3 mph - N/A   Mostly Cloudy
11:53 AM 72.0 °F 57.9 °F 61% 30.25 in 10.0 mi NE 16.1 mph 24.2 mph N/A   Mostly Cloudy
12:53 PM 72.0 °F 57.0 °F 59% 30.22 in 10.0 mi NE 12.7 mph 23.0 mph N/A   Mostly Cloudy
1:53 PM 73.9 °F 57.0 °F 55% 30.20 in 10.0 mi NE 17.3 mph 24.2 mph N/A   Mostly Cloudy
2:53 PM 72.0 °F 55.9 °F 57% 30.20 in 10.0 mi NE 15.0 mph 21.9 mph N/A   Overcast
3:53 PM 71.1 °F 57.0 °F 61% 30.21 in 10.0 mi ENE 15.0 mph - N/A   Mostly Cloudy
4:53 PM 71.1 °F 57.0 °F 61% 30.22 in 10.0 mi ENE 12.7 mph - N/A   Mostly Cloudy
5:53 PM 71.1 °F 57.0 °F 61% 30.22 in 10.0 mi ENE 13.8 mph - N/A   Overcast
6:53 PM 71.1 °F 57.0 °F 61% 30.22 in 10.0 mi ENE 18.4 mph - N/A   Overcast
7:53 PM 72.0 °F 57.0 °F 59% 30.24 in 10.0 mi ENE 16.1 mph 25.3 mph N/A   Overcast
8:53 PM 72.0 °F 57.9 °F 61% 30.24 in 10.0 mi ENE 12.7 mph - N/A   Overcast
9:53 PM 71.1 °F 57.9 °F 63% 30.24 in 10.0 mi ENE 12.7 mph - N/A   Overcast
10:53 PM 72.0 °F 60.1 °F 66% 30.24 in 10.0 mi ENE 15.0 mph 23.0 mph N/A   Overcast
11:53 PM 72.0 °F 61.0 °F 68% 30.23 in 10.0 mi ENE 11.5 mph 18.4 mph N/A   Overcast